User: anonymous   Login
Location: Caltech
(34.1382°N, 118.1253°W)
Time: 18:52:38
(UTC-08:00)
Language:

OAO 2 Rocket - Orbit

View from above orbital plane
View from above orbital plane
View from above satellite
View from above satellite

Ground track
Ground track

The orbit data is extracted from the following two-line orbital elements,

1 03598U 68110B   14328.84081944  .00000426  00000-0  10299-3 0  7698
2 03598 034.9926 217.6255 0050599 203.0583 232.2958 14.53807989430256
Epoch (UTC): 24 November 2014 20:10:46
Eccentricity: 0.0050599
inclination: 34.9926°
perigee height: 677 km
apogee height: 749 km
right ascension of ascending node: 217.6255°
argument of perigee: 203.0583°
revolutions per day: 14.53807989
mean anomaly at epoch: 232.2958°
orbit number at epoch: 43025

The dashed part of the orbit path shows where the satellite is in the earth's shadow,  

DLR